sat.trackr.live / text

‹ back to catalog

HULIANWANG DIGUI-156

NORAD 68130 · 2026-047B

PAYLOAD ACTIVE UNKNOWN

§ Identity

Operator
Country
PRC
Launch date
2026-03-12
Launch site
WSC
Launch vehicle
Mass (kg)
RCS (m²)

External: N2YO · Heavens-Above · Gunter

§ Orbital elements

Epoch: 2026-05-25T03:22:51.587904Z

Period
108.33 min
Inclination
50.0011°
Eccentricity
0.0000240
Mean motion
13.29330593 rev/d
Perigee alt
1,149.1 km
Apogee alt
1,149.5 km
Semi-major
7,527.4 km
B*
7.2245e-5
RAAN
138.9715°
Arg perigee
355.5278°
Mean anomaly
4.5591°
Rev number
999

§ Raw data

HULIANWANG DIGUI-1561 68130U 26047B   26145.14087486 -.00000091  00000+0  72245-4 0  99972 68130  50.0011 138.9715 0000240 355.5278   4.5591 13.29330593  9991

JSON: /api/v1/satellites/68130 · /tle

For live sub-satellite position, see the globe view (requires WebGL).

§ Visibility from observer

Set your observer location to see the next 7 days of passes ≥ 10°. The values pass through the URL so the page stays shareable.

No JS? Fill the form by hand. The geolocation button needs JavaScript.